Le nostre stazioni meteo in Italia

Pubblicità
Il mio iltempo24.it
Rodkallen, Svezia (2188): Temperatura & dewpoint: 15.01.2018 09:00:00 - 21.01.2018 09:00:00 (CET)Rodkallen, Svezia (2188): velocità del vento & gusts: 15.01.2018 09:00:00 - 21.01.2018 09:00:00 (CET)Rodkallen, Svezia (2188): direzione del vento: 15.01.2018 09:00:00 - 21.01.2018 09:00:00 (CET)Rodkallen, Svezia (2188): visibility: 15.01.2018 09:00:00 - 21.01.2018 09:00:00 (CET)Rodkallen, Svezia (2188): precipitazioni: 15.01.2018 09:00:00 - 21.01.2018 09:00:00 (CET)
Data & Tempo tt [°C] td [°C] ff [km/h] ff [kn] fx [km/h] fx [kn] dd vv [km] rr [mm]
21.01.2018 09:00:00 - - - - - - - - -
21.01.2018 08:00:00 -11,0 -12,9 15 8 22 12 N 9 0,0
21.01.2018 07:00:00 -11,1 -13,0 16 9 23 13 N 8 0,1
21.01.2018 06:00:00 -10,9 -12,8 18 10 24 13 N 3,2 0,2
21.01.2018 05:00:00 -10,9 -12,8 20 11 24 13 N 1,4 0,1
21.01.2018 04:00:00 -11,0 -12,9 18 10 24 13 N 9 0,0
21.01.2018 03:00:00 -11,0 -12,9 16 9 24 13 N 7 0,0
21.01.2018 02:00:00 -11,4 -13,3 20 11 24 13 N 16 0,0
21.01.2018 01:00:00 -11,5 -13,5 17 9 24 13 N 13 0,1
21.01.2018 00:00:00 -11,5 -13,4 20 11 25 13 N 8 0,1
20.01.2018 23:00:00 -11,6 -13,5 21 11 25 14 N 3,9 0,1
20.01.2018 22:00:00 -11,5 -13,4 19 10 25 14 N 2,9 0,1
20.01.2018 21:00:00 -11,6 -13,6 19 11 24 13 N 6 0,1
20.01.2018 20:00:00 -11,6 -13,5 21 11 24 13 N 7 0,1
20.01.2018 19:00:00 -11,6 -13,5 18 10 23 13 N 11 0,0
20.01.2018 18:00:00 -11,6 -13,5 19 10 27 14 N 10 0,1
20.01.2018 17:00:00 -11,5 -13,2 20 11 27 15 N 10 0,1
20.01.2018 16:00:00 -10,2 -11,7 22 12 30 16 N 6 0,1
20.01.2018 15:00:00 -9,6 -11,2 23 13 30 16 NNE 6 0,1
20.01.2018 14:00:00 -9,0 -10,3 24 13 30 16 NNE 9 0,0
20.01.2018 13:00:00 -7,7 -9,1 26 14 30 16 NE 12 0,0
20.01.2018 12:00:00 -8,3 -9,5 26 14 30 16 NNE 8 0,0
20.01.2018 11:00:00 -9,0 -10,3 22 12 31 17 NNE 11 0,0
20.01.2018 10:00:00 -6,0 -7,5 19 10 35 19 ENE 17 0,0
20.01.2018 09:00:00 -5,7 -7,5 25 13 36 19 ENE 22 0,0
20.01.2018 08:00:00 -7,7 -8,9 30 16 36 19 NNE 9 0,0
20.01.2018 07:00:00 -8,0 -9,2 24 13 33 18 NNE 13 0,0
20.01.2018 06:00:00 -9,2 -10,5 27 15 32 17 NNE 8 0,0
20.01.2018 05:00:00 -9,8 -11,3 23 13 33 18 N 13 0,0
20.01.2018 04:00:00 -11,0 -12,6 27 14 33 18 NNE 6 0,1
20.01.2018 03:00:00 -11,3 -12,9 24 13 32 18 N 11 0,0
20.01.2018 02:00:00 -11,0 -12,6 25 13 32 18 N 5 0,1
20.01.2018 01:00:00 -9,6 -11,0 21 11 32 18 N 1,1 0,4
20.01.2018 00:00:00 -6,3 -7,7 24 13 32 17 NE 10 0,0
19.01.2018 23:00:00 -6,5 -7,9 24 13 32 17 NE 5 0,0
19.01.2018 22:00:00 -8,5 -9,8 15 8 23 12 N 13 0,1
19.01.2018 21:00:00 -10,4 -11,9 16 9 23 12 N 3,2 0,0
19.01.2018 20:00:00 -10,4 -11,9 15 8 21 11 N 6 0,0
19.01.2018 19:00:00 -10,5 -12,1 13 7 21 11 N 8 0,0
19.01.2018 18:00:00 -11,4 -13,0 15 8 23 12 N 20 0,0
19.01.2018 17:00:00 -11,7 -13,3 15 8 25 13 N 23 0,0
19.01.2018 16:00:00 -11,4 -13,0 16 9 25 13 N 24 0,0
19.01.2018 15:00:00 -10,9 -12,5 19 10 30 16 N 17 0,1
19.01.2018 14:00:00 -10,3 -11,9 18 10 30 16 N 4,0 0,2
19.01.2018 13:00:00 -10,4 -12,0 22 12 35 19 N 1,2 0,7
19.01.2018 12:00:00 -10,2 -11,8 26 14 35 19 N 1,5 0,1
19.01.2018 11:00:00 -10,4 -12,0 26 14 33 18 N 3,2 0,1
19.01.2018 10:00:00 -9,9 -11,5 27 15 37 20 N 4,0 0,1
19.01.2018 09:00:00 -9,3 -10,8 30 16 37 20 N 2,2 0,1
19.01.2018 08:00:00 -8,6 -10,1 29 16 39 21 N 4,6 0,0
19.01.2018 07:00:00 -7,3 -8,8 32 18 39 21 N 1,9 0,3
19.01.2018 06:00:00 -5,9 -7,9 30 16 38 20 NE 2,9 0,1
19.01.2018 05:00:00 -5,6 -7,4 23 13 36 20 NE 2,0 0,5
19.01.2018 04:00:00 -6,2 -7,9 29 15 36 20 NNE 2,0 0,2
19.01.2018 03:00:00 -5,3 -7,3 24 13 39 21 NNE 4,8 0,0
19.01.2018 02:00:00 -5,0 -7,1 29 16 42 23 NE 3,4 0,0
19.01.2018 01:00:00 -4,7 -6,7 32 17 43 23 NE 5 0,0
19.01.2018 00:00:00 -4,5 -6,3 35 19 45 24 NE 5 0,0
18.01.2018 23:00:00 -4,3 -6,3 35 19 45 24 ENE 1,1 0,3
18.01.2018 22:00:00 -3,7 -7,7 27 14 45 24 E 14 0,0
18.01.2018 21:00:00 -4,0 -7,4 34 18 45 24 E 17 0,1
18.01.2018 20:00:00 -3,9 -5,7 25 13 35 19 E 2,0 0,2
18.01.2018 19:00:00 -3,7 -5,7 25 14 37 20 E 2,3 0,0
18.01.2018 18:00:00 -3,5 -5,7 26 14 37 20 E 5 0,1
18.01.2018 17:00:00 -3,4 -5,9 28 15 34 18 E 9 0,1
18.01.2018 16:00:00 -3,8 -5,5 26 14 33 18 E 2,1 0,2
18.01.2018 15:00:00 -3,8 -6,3 22 12 32 18 E 3,6 0,0
18.01.2018 14:00:00 -3,9 -6,2 25 13 34 18 ESE 5 0,0
18.01.2018 13:00:00 -4,0 -6,0 26 14 34 18 E 3,0 0,0
18.01.2018 12:00:00 -4,0 -6,3 26 14 32 17 ESE 3,4 0,0
18.01.2018 11:00:00 -4,2 -7,0 23 12 32 18 E 7 0,0
18.01.2018 10:00:00 -4,4 -7,8 23 12 33 18 ESE 19 0,0
18.01.2018 09:00:00 -4,8 -7,2 27 15 36 19 E 3,5 0,0
18.01.2018 08:00:00 -5,2 -7,5 27 15 37 20 E 3,3 0,0
18.01.2018 07:00:00 -5,4 -8,0 27 14 40 22 E 6 0,0
18.01.2018 06:00:00 -5,7 -8,3 27 14 40 22 ENE 4,7 0,0
18.01.2018 05:00:00 -6,0 -9,2 26 14 38 20 E 8 0,0
18.01.2018 04:00:00 -6,0 -9,5 26 14 37 20 E 6 0,0
18.01.2018 03:00:00 -6,2 -10,2 22 12 35 19 E 8 0,0
18.01.2018 02:00:00 -6,4 -11,1 21 12 37 20 E 16 0,0
18.01.2018 01:00:00 -6,2 -11,0 27 15 37 20 E 32 0,0
18.01.2018 00:00:00 -6,0 -10,8 26 14 38 20 ESE 9 0,0
17.01.2018 23:00:00 -6,0 -9,5 22 12 39 21 ESE 6 0,0
17.01.2018 22:00:00 -5,8 -9,3 32 17 39 21 SE 7 0,0
17.01.2018 21:00:00 -5,9 -8,6 29 16 38 20 ESE 5 0,0
17.01.2018 20:00:00 -6,0 -8,6 29 16 40 22 ESE 2,9 0,0
17.01.2018 19:00:00 -6,1 -9,8 26 14 50 27 ESE 2,4 0,0
17.01.2018 18:00:00 -5,7 -9,3 36 19 50 27 ESE 7 0,0
17.01.2018 17:00:00 -5,6 -9,7 34 19 48 26 ESE 10 0,0
17.01.2018 16:00:00 -5,1 -9,2 36 19 48 26 ESE 32 0,0
17.01.2018 15:00:00 -5,2 -9,8 34 18 42 23 ESE 35 0,0
17.01.2018 14:00:00 -5,7 -9,4 29 16 43 23 SE 7 0,0
17.01.2018 13:00:00 -5,9 -9,3 30 16 50 27 SE 8 0,0
17.01.2018 12:00:00 -5,8 -9,0 35 19 50 27 SE 11 0,0
17.01.2018 11:00:00 -5,7 -8,7 36 19 50 27 SE 6 0,0
17.01.2018 10:00:00 -5,9 -8,8 39 21 54 29 SE 36 0,0
17.01.2018 09:00:00 -5,2 -8,1 40 22 54 29 SE 48 0,0
17.01.2018 08:00:00 -5,1 -8,2 33 18 45 24 ESE 50 0,0
17.01.2018 07:00:00 -5,0 -8,6 34 19 45 24 ESE 50 0,0
17.01.2018 06:00:00 -4,9 -8,3 30 16 44 24 ESE 50 0,0
17.01.2018 05:00:00 -4,4 -8,0 34 18 48 26 SE 50 0,0
17.01.2018 04:00:00 -4,2 -7,8 33 18 48 26 SE 50 0,0
17.01.2018 03:00:00 -4,1 -7,5 36 19 48 26 SE 50 0,0
17.01.2018 02:00:00 -4,0 -7,4 37 20 53 29 SE 36 0,0
17.01.2018 01:00:00 -3,5 -7,1 36 20 53 29 SE 50 0,0
17.01.2018 00:00:00 -3,8 -7,4 39 21 50 27 SE 50 0,0
16.01.2018 23:00:00 -3,6 -7,6 38 21 53 29 SE 43 0,0
16.01.2018 22:00:00 -3,6 -7,6 39 21 54 29 SSE 26 0,0
16.01.2018 21:00:00 -3,6 -7,7 43 23 54 29 SSE 31 0,0
16.01.2018 20:00:00 -3,7 -7,7 42 23 54 29 SSE 33 0,0
16.01.2018 19:00:00 -3,9 -7,5 40 22 54 29 SSE 30 0,0
16.01.2018 18:00:00 -4,1 -7,2 39 21 54 29 SE 32 0,0
16.01.2018 17:00:00 -4,3 -7,6 41 22 53 29 SSE 19 0,0
16.01.2018 16:00:00 -4,2 -7,5 42 23 51 28 SE 13 0,0
16.01.2018 15:00:00 -4,2 -7,5 38 21 56 31 SE 11 0,0
16.01.2018 14:00:00 -4,3 -7,2 44 24 64 34 SE 9 0,0
16.01.2018 13:00:00 -4,6 -7,7 47 25 64 34 SE 11 0,0
16.01.2018 12:00:00 -4,6 -7,4 48 26 66 36 SE 11 0,0
16.01.2018 11:00:00 -4,6 -7,4 52 28 68 37 SSE 12 0,0
16.01.2018 10:00:00 -4,5 -6,9 51 28 68 37 SSE 7 0,0
16.01.2018 09:00:00 -4,5 -6,6 53 29 68 37 SSE 4,8 0,0
16.01.2018 08:00:00 -4,3 -6,6 50 27 71 38 SE 7 0,0
16.01.2018 07:00:00 -4,4 -6,8 53 29 76 41 SE 8 0,0
16.01.2018 06:00:00 -4,2 -6,5 56 30 76 41 SE 11 0,0
16.01.2018 05:00:00 -4,2 -6,7 58 31 75 40 SE 11 0,0
16.01.2018 04:00:00 -3,9 -6,4 58 31 79 43 SSE 10 0,0
16.01.2018 03:00:00 -3,9 -6,4 61 33 80 43 SE 13 0,0
16.01.2018 02:00:00 -3,9 -6,2 62 34 81 44 SE 13 0,0
16.01.2018 01:00:00 -3,6 -5,9 62 33 81 44 SE 9 0,0
16.01.2018 00:00:00 -3,2 -5,4 61 33 81 44 SSE 7 0,0
15.01.2018 23:00:00 -2,7 -4,9 64 34 83 45 SSE 5 0,0
15.01.2018 22:00:00 -2,2 -4,5 65 35 83 45 SSE 6 0,0
15.01.2018 21:00:00 -2,2 -4,5 59 32 83 45 SSE 6 0,0
15.01.2018 20:00:00 -1,8 -4,1 59 32 76 41 SSE 7 0,0
15.01.2018 19:00:00 -1,8 -4,1 59 32 76 41 SSE 7 0,0
15.01.2018 18:00:00 -1,8 -4,0 59 32 77 41 SSE 7 0,0
15.01.2018 17:00:00 -1,9 -4,1 61 33 79 42 SSE 6 0,0
15.01.2018 16:00:00 -1,7 -3,9 61 33 79 42 SSE 8 0,0
15.01.2018 15:00:00 -1,7 -3,7 61 33 79 42 SSE 7 0,0
15.01.2018 14:00:00 -1,4 -3,3 57 31 77 42 SSE 6 0,0
15.01.2018 13:00:00 -1,3 -3,3 56 30 78 42 SSE 6 0,0
15.01.2018 12:00:00 -1,4 -3,4 61 33 81 44 SSE 6 0,0
15.01.2018 11:00:00 -1,2 -3,1 60 33 81 44 SSE 4,9 0,0
15.01.2018 10:00:00 -1,0 -3,0 62 33 79 43 SSE 6 0,0
15.01.2018 09:00:00 -0,7 -2,9 60 32 78 42 S 10 0,0

tt = Temperatura
td = dewpoint
ff = velocità del vento
fx = gusts
dd = direzione del vento
vv = visibility
rr = precipitazioni

Stazioni seguenti

WeatherPro
AMSI
MeteoEarth